This is the latest recevied weather packets stored in our database for station/object IU8UOQ-5. If no packets are shown the sender has not sent any weather packets the latest 10 day(s).
| Time | Temp. | Humidity | Pressure | Rain* | Wind** | Luminosity | Snow |
|---|---|---|---|---|---|---|---|
| 1787957845 | 30.56° C | 35% | 1006.9 hPa | - | - | - | - |
| 1787956644 | 30° C | 36% | 1007 hPa | - | - | - | - |
| 1787955442 | 29.44° C | 37% | 1007.1 hPa | - | - | - | - |
| 1787954241 | 30° C | 39% | 1007.3 hPa | - | - | - | - |
| 1787953040 | 30° C | 41% | 1007.5 hPa | - | - | - | - |
| 1787951839 | 30.56° C | 40% | 1007.5 hPa | - | - | - | - |
| 1787950637 | 30.56° C | 43% | 1007.5 hPa | - | - | - | - |
| 1787949436 | 30° C | 43% | 1007.6 hPa | - | - | - | - |
| 1787948235 | 30.56° C | 46% | 1007.8 hPa | - | - | - | - |
| 1787947033 | 31.11° C | 51% | 1008.1 hPa | - | - | - | - |
| 1787945832 | 31.11° C | 52% | 1007.9 hPa | - | - | - | - |
| 1787944631 | 31.11° C | 56% | 1007.9 hPa | - | - | - | - |
| 1787943430 | 31.67° C | 62% | 1007.8 hPa | - | - | - | - |
| 1787942229 | 31.67° C | 73% | 1007.9 hPa | - | - | - | - |
| 1787941027 | 32.22° C | 92% | 1007.8 hPa | - | - | - | - |
| 1787939826 | 32.78° C | 81% | 1007.7 hPa | - | - | - | - |
| 1787938625 | 33.33° C | 73% | 1007.4 hPa | - | - | - | - |
| 1787937424 | 33.89° C | 68% | 1007.3 hPa | - | - | - | - |
| 1787936222 | 33.89° C | 58% | 1007.3 hPa | - | - | - | - |
| 1787935021 | 33.89° C | 58% | 1007.5 hPa | - | - | - | - |
| 1787933820 | 34.44° C | 51% | 1007.5 hPa | - | - | - | - |
| 1787932619 | 35.56° C | 43% | 1007.5 hPa | - | - | - | - |
| 1787931417 | 36.67° C | 38% | 1007.4 hPa | - | - | - | - |
| 1787930216 | 37.78° C | 26% | 1007.2 hPa | - | - | - | - |
| 1787929015 | 39.44° C | 19% | 1006.7 hPa | - | - | - | - |
* Rain since midnight (hover to see other rain measurements)
** Current wind speed in m/s (hover to see current wind gust speed)